Meteo Giornale » Osservazioni meteo Stati Uniti (USA) » Fresno-Chandler
ore: 09:10 - Osservazioni Meteo Fresno-Chandler
Lat. 36° 44' N Lon. 119° 49' W Alt. 85 metri s.l.m.
19 °C
Sereno
Temp. 24 Ore
13 °C
33 °C
Nord/NOvest
14.8 Km/h
Dew point 10 °C
Umidità 55 %
Visibilità 10 Km
Il sole sorge alle ore 06:30
Il sole tramonta alle ore 19:27
| Data e Ora | Cielo e Fenomeni | T °C | DP °C | Um. % | Pres. hPa | Vis. km | Vento km/h | |
|---|---|---|---|---|---|---|---|---|
| Oggi h: 09:10 | Sereno | 19 | 10 | 55 | 1016 | 10 | N/NO 14.8 | |
| Oggi h: 08:50 | Sereno | 18 | 10 | 59 | 1016 | 10 | NO 13 | |
| Oggi h: 08:30 | Sereno | 17 | 10 | 63 | 1016 | 10 | N/NO 11.1 | |
| Oggi h: 08:10 | Sereno | 17 | 10 | 63 | 1016 | 10 | NO 13 | |
| Oggi h: 07:50 | Sereno | 16 | 10 | 67 | 1016 | 10 | NO 18.5 | |
| Oggi h: 07:30 | Sereno | 15 | 10 | 72 | 1016 | 10 | NO 11.1 | |
| Oggi h: 07:10 | Sereno | 14 | 11 | 82 | 1015 | 10 | O/NO 9.3 | |
| Oggi h: 06:50 | Sereno | 13 | 11 | 87 | 1015 | 14 | O 9.3 | |
| Oggi h: 06:30 | Poco Nuvoloso | 14 | 11 | 82 | 1015 | 10 | O 11.1 | |
| Oggi h: 06:15 | Molto Nuvoloso | 14 | 11 | 82 | 1015 | 10 | O 7.4 | |
| Oggi h: 05:50 | Coperto | 15 | 10 | 72 | 1014 | 10 | O/NO 11.1 | |
| Oggi h: 05:30 | Coperto | 15 | 11 | 76 | 1014 | 10 | NO 9.3 | |
| Oggi h: 05:10 | Nuvoloso | 15 | 11 | 76 | 1014 | 10 | O/NO 13 | |
| Oggi h: 04:50 | Poco Nuvoloso | 16 | 11 | 72 | 1014 | 10 | O/NO 13 | |
| Oggi h: 04:30 | Poco Nuvoloso | 16 | 11 | 72 | 1014 | 10 | O/NO 9.3 | |
| Oggi h: 04:10 | Poco Nuvoloso | 16 | 11 | 72 | 1014 | 10 | O/NO 7.4 | |
| Oggi h: 03:50 | Nuvoloso | 17 | 11 | 67 | 1013 | 10 | O/NO 13 | |
| Oggi h: 03:30 | Molto Nuvoloso | 17 | 10 | 63 | 1013 | 10 | O/NO 13 | |
| Oggi h: 03:10 | Coperto | 17 | 11 | 67 | 1013 | 10 | NO 16.7 | |
| Oggi h: 02:50 | Molto Nuvoloso | 18 | 10 | 59 | 1013 | 10 | O/NO 16.7 | |
| Oggi h: 02:30 | Nuvoloso | 18 | 11 | 63 | 1013 | 10 | NO 14.8 | |
| Oggi h: 02:10 | Molto Nuvoloso | 18 | 11 | 63 | 1013 | 10 | NO 13 | |
| Oggi h: 01:50 | Coperto | 18 | 11 | 63 | 1013 | 10 | NO 14.8 | |
| Oggi h: 01:30 | Molto Nuvoloso | 18 | 11 | 63 | 1013 | 10 | NO 14.8 | |
| Oggi h: 01:10 | Molto Nuvoloso | 19 | 11 | 59 | 1012 | 10 | NO 16.7 | |
| Oggi h: 00:50 | Molto Nuvoloso | 19 | 11 | 59 | 1012 | 10 | N/NO 9.3 | |
| Oggi h: 00:30 | Molto Nuvoloso | 19 | 11 | 59 | 1012 | 10 | NO 16.7 | |
| Oggi h: 00:10 | Molto Nuvoloso | 19 | 11 | 59 | 1012 | 10 | NO 16.7 | |
| Ieri h: 23:50 | Molto Nuvoloso | 20 | 11 | 56 | 1012 | 10 | NO 18.5 | |
| Ieri h: 23:30 | Molto Nuvoloso | 20 | 11 | 56 | 1012 | 10 | NO 18.5 | |
| Ieri h: 23:10 | Molto Nuvoloso | 20 | 11 | 56 | 1011 | 10 | NO 14.8 | |
| Ieri h: 22:50 | Molto Nuvoloso | 21 | 11 | 52 | 1011 | 10 | O/NO 25.9 | |
| Ieri h: 22:30 | Nuvoloso | 22 | 11 | 49 | 1011 | 10 | O/NO 24 | |
| Ieri h: 22:10 | Poco Nuvoloso | 23 | 10 | 43 | 1011 | 10 | O/NO 22.2 | |
| Ieri h: 21:50 | Sereno | 23 | 9 | 40 | 1011 | 10 | O/NO 18.5 | |
| Ieri h: 21:30 | Sereno | 24 | 9 | 38 | 1010 | 10 | NO 14.8 | |
| Ieri h: 21:10 | Poco Nuvoloso | 25 | 8 | 33 | 1010 | 10 | NO 16.7 | |
| Ieri h: 20:50 | Nuvoloso | 25 | 8 | 33 | 1010 | 10 | NO 14.8 | |
| Ieri h: 20:30 | Poco Nuvoloso | 26 | 8 | 31 | 1010 | 10 | O/NO 22.2 | |
| Ieri h: 20:10 | Sereno | 27 | 9 | 32 | 1009 | 10 | O/NO 22.2 | |
| Ieri h: 19:50 | Sereno | 29 | 9 | 28 | 1009 | 10 | NO 22.2 | |
| Ieri h: 19:30 | Sereno | 30 | 9 | 27 | 1009 | 10 | NO 18.5 | |
| Ieri h: 19:10 | Sereno | 31 | 9 | 25 | 1009 | 10 | NO 16.7 | |
| Ieri h: 18:50 | Sereno | 31 | 8 | 23 | 1009 | 10 | O/NO 16.7 | |
| Ieri h: 18:30 | Sereno | 32 | 7 | 21 | 1009 | 10 | O 14.8 | |
| Ieri h: 18:10 | Sereno | 32 | 7 | 21 | 1009 | 10 | O 14.8 | |
| Ieri h: 17:50 | Sereno | 33 | 6 | 18 | 1009 | 10 | N 7.4 | |
| Ieri h: 17:30 | Sereno | 33 | 5 | 17 | 1009 | 10 | O 9.3 | |
| Ieri h: 17:10 | Sereno | 33 | 4 | 16 | 1009 | 10 | N 7.4 | |
| Ieri h: 16:50 | Sereno | 33 | 3 | 15 | 1009 | 10 | SO 13 | |
| Ieri h: 16:30 | Sereno | 33 | 3 | 15 | 1009 | 10 | N 0 | |
| Ieri h: 16:10 | Sereno | 32 | 6 | 19 | 1009 | 14 | N 7.4 | |
| Ieri h: 15:50 | Sereno | 32 | 6 | 19 | 1010 | 10 | N 5.5 | |
| Ieri h: 15:30 | Sereno | 32 | 6 | 19 | 1010 | 10 | N 7.4 | |
| Ieri h: 15:10 | Sereno | 32 | 6 | 19 | 1010 | 14 | N 0 | |
| Ieri h: 14:50 | Sereno | 32 | 5 | 18 | 1010 | 14 | N 11.1 | |
| Ieri h: 14:30 | Sereno | 31 | 7 | 22 | 1011 | 10 | SO 9.3 | |
| Ieri h: 14:10 | Sereno | 31 | 6 | 20 | 1011 | 10 | S/SO 13 | |
| Ieri h: 13:50 | Sereno | 31 | 7 | 22 | 1011 | 13 | N 11.1 | |
| Ieri h: 13:30 | Sereno | 30 | 7 | 23 | 1011 | 10 | N 0 | |
| Ieri h: 13:10 | Sereno | 30 | 7 | 23 | 1011 | 14 | SO 11.1 | |
| Ieri h: 12:50 | Sereno | 30 | 8 | 25 | 1012 | 10 | O/NO 11.1 | |
| Ieri h: 12:30 | Sereno | 29 | 9 | 28 | 1012 | 10 | N 0 | |
| Ieri h: 12:10 | Sereno | 29 | 9 | 28 | 1012 | 10 | O 13 | |
| Ieri h: 11:50 | Sereno | 28 | 9 | 30 | 1012 | 10 | O 9.3 | |
| Ieri h: 11:30 | Sereno | 27 | 9 | 32 | 1012 | 10 | O/NO 9.3 | |
| Ieri h: 11:10 | Sereno | 26 | 9 | 34 | 1012 | 10 | N 0 | |
| Ieri h: 10:50 | Sereno | 26 | 10 | 36 | 1012 | 10 | O/NO 13 | |
| Ieri h: 10:30 | Sereno | 25 | 9 | 36 | 1012 | 10 | N 5.5 | |
| Ieri h: 10:10 | Sereno | 24 | 10 | 41 | 1012 | 10 | NO 11.1 | |
| Ieri h: 09:50 | Sereno | 23 | 10 | 43 | 1012 | 10 | N 9.3 | |



